Overview Statistics Trail Chart Weather Telemetry Raw packets
 

This is the latest recevied weather packets stored in our database for station/object VE1DX. If no packets are shown the sender has not sent any weather packets the latest 10 day(s).

<< 37 38 39 40 41 42 43 >>
Time Temp. Humidity Pressure Rain* Wind** Luminosity Snow
1788377115 21.11° C 78% 1023.3 hPa 0 mm - - -
1788376816 21.67° C 79% 1023.3 hPa 0 mm - - -
1788376516 21.67° C 77% 1023.3 hPa 0 mm - - -
1788376216 22.22° C 76% 1023.4 hPa 0 mm - - -
1788375915 22.22° C 78% 1023.3 hPa 0 mm - - -
1788375616 22.22° C 79% 1023.3 hPa 0 mm - - -
1788375315 21.67° C 76% 1023.3 hPa 0 mm - - -
1788375016 21.67° C 75% 1023.4 hPa 0 mm - - -
1788374715 21.67° C 79% 1023.3 hPa 0 mm - - -
1788374416 21.11° C 79% 1023.3 hPa 0 mm - - -
1788374116 20.56° C 79% 1023.3 hPa 0 mm - - -
1788373816 21.11° C 78% 1023.3 hPa 0 mm - - -
1788373516 21.11° C 76% 1023.3 hPa 0 mm - - -
1788373215 21.11° C 77% 1023.4 hPa 0 mm - - -
1788372915 21.11° C 76% 1023.3 hPa 0 mm - - -
1788372616 21.11° C 77% 1023.3 hPa 0 mm - - -
1788372315 21.11° C 78% 1023.3 hPa 0 mm - - -
1788372016 21.11° C 77% 1023.2 hPa 0 mm - - -
1788371716 21.11° C 76% 1023.3 hPa 0 mm - - -
1788371415 21.11° C 76% 1023.3 hPa 0 mm - - -
1788371116 21.11° C 76% 1023.3 hPa 0 mm - - -
1788370815 21.11° C 76% 1023.3 hPa 0 mm - - -
1788370516 20.56° C 78% 1023.3 hPa 0 mm - - -
1788370215 20.56° C 78% 1023.3 hPa 0 mm - - -
1788369915 20.56° C 78% 1023.4 hPa 0 mm - - -

* Rain latest hour (hover to see other rain measurements)
** Current wind speed in m/s (hover to see current wind gust speed)